Home > Time Zones > World Clock > Weather > U.S.A. > Hilo > Past weeks

Flag for U.S.A. Weather past 2 weeks in Hilo, Hawaii, U.S.A.

Now
67 °F

Light rain. Mostly cloudy.


Feels Like: 67 °F
Forecast: 63 / 77 °F
Wind: No wind

Location: Hilo International Airport


UV Index: 3 (Moderate)

Visibility: 10 mi


Pressure: 30.06 "Hg

Humidity: 97%

Dew point: 66 °F

Location of HiloLocation

Historic Weather in Hilo

°F

Hilo temperature yesterday

Maximum temperature yesterday: 78 °F (at 11:53 AM)
Minimum temperature yesterday: 67 °F (at 9:53 PM)
Average temperature yesterday: 72 °F

Past Weeks' High & Low Weather Summary

 TemperatureHumidityPressure
High81 °F (Apr 3, 11:53 AM)100% (Apr 1, 1:01 AM)30.18 "Hg (Apr 1, 1:01 AM)
Low64 °F (Apr 10, 5:53 AM)50% (Apr 9, 12:53 PM)29.94 "Hg (Apr 5, 2:53 PM)
Average72 °F82%30.07 "Hg
* Reported Apr 1 1:01 AM — Apr 16 1:53 AM, Hilo, Weather by CustomWeather, © 2014

Note: Actual official high and low records may vary slightly from our data, if they occured in-between our weather recording intervals... More about our weather records

Advertising

Historic Weather Conditions — Data for Previous 24 hours

 ConditionsComfort  
Time TempWeatherWind HumidityBarometerVisibility
1:53 AM
Apr 16
66 °FPartly cloudy.No wind96%30.08 "Hg10 mi
1:00 AM66 °FPassing clouds.No wind96%30.09 "Hg10 mi
11:53 PM
Apr 15
67 °FMostly cloudy.No wind97%30.10 "Hg10 mi
10:53 PM67 °FPassing clouds.7 mph93%30.11 "Hg10 mi
9:53 PM67 °FLight rain. Partly cloudy.6 mph97%30.11 "Hg10 mi
8:53 PM68 °FPassing clouds.8 mph96%30.09 "Hg10 mi
7:53 PM69 °FFog.8 mph96%30.08 "Hg6 mi
7:32 PM70 °FHeavy rain. Fog.12 mph88%30.09 "Hg2 mi
6:53 PM71 °FMostly cloudy.6 mph93%30.06 "Hg10 mi
5:53 PM71 °FBroken clouds.6 mph87%30.04 "Hg10 mi
4:53 PM77 °FBroken clouds.9 mph71%30.02 "Hg10 mi
3:53 PM75 °FPassing clouds.12 mph79%30.01 "Hg10 mi
2:53 PM75 °FLight rain. Broken clouds.12 mph85%30.01 "Hg7 mi
2:34 PM75 °FBroken clouds.7 mph83%30.02 "Hg10 mi
12:53 PM76 °FBroken clouds.13 mph74%30.04 "Hg10 mi
11:53 AM78 °FPassing clouds.13 mph66%30.06 "Hg10 mi
10:53 AM77 °FScattered clouds.12 mph71%30.08 "Hg10 mi
9:53 AM76 °FScattered clouds.12 mph77%30.09 "Hg10 mi
8:53 AM73 °FScattered clouds.9 mph79%30.10 "Hg10 mi
7:53 AM70 °FBroken clouds.9 mph87%30.10 "Hg10 mi
6:53 AM69 °FBroken clouds.10 mph81%30.08 "Hg10 mi
5:53 AM71 °FMostly cloudy.16 mph81%30.06 "Hg10 mi
5:17 AM70 °FPassing clouds.13 mph83%30.06 "Hg10 mi
4:53 AM72 °FPassing clouds.10 mph71%30.05 "Hg10 mi
3:53 AM72 °FPassing clouds.13 mph71%30.05 "Hg10 mi
Weather by CustomWeather, © 2014

See weather overview